Weather History for KHAI - March, 2014

Change the Weather History Date:

Tuesday, March 11, 2014

  Actual Average Record
Temperature  
Mean Temperature 40 °F -  
Max Temperature 49 °F 44 °F - (-1)
Min Temperature 32 °F 26 °F - (-1)
Degree Days  
Heating Degree Days 24    
Moisture  
Dew Point 34 °F    
Average Humidity 79    
Maximum Humidity 95    
Minimum Humidity 50    
Precipitation  
Precipitation 0.00 in - - ()
Sea Level Pressure  
Sea Level Pressure 29.68 in    
Wind  
Wind Speed 3 mph (NNE)    
Max Wind Speed 10 mph    
Max Gust Speed -    
Visibility 6 miles    
Events Fog , Rain    
Averages and records for this station are not official NWS values.
T = Trace of Precipitation, MM = Missing Value Source: NWS Daily Summary

Daily Weather History Graph

Daily Weather History Graph

Search for Another Location

Airport or City:

Trip Planner

Search our weather history database for the weather conditions in past years. The results will help you decide how hot, cold, wet, or windy it might be!

Date:

Astronomy

Mar. 11, 2014 Rise Set
Actual Time 8:00 AM EDT 7:44 PM EDT
Civil Twilight 7:33 AM EDT 8:12 PM EDT
Nautical Twilight 7:00 AM EDT 8:44 PM EDT
Astronomical Twilight 6:28 AM EDT 9:17 PM EDT
Moon 3:16 PM EDT (3/11) 4:57 AM EDT (3/11)
Length of Visible Light 12h 39m
Length of Day
11h 43m
Waxing Gibbous, 78% of the Moon is Illuminated
Mar 11
Waxing Gibbous
Mar 16
Full
Mar 23
Last Quarter
Mar 30
New
Apr 7
First Quarter

Hourly Weather History & Observations

Time (EDT) Temp. Windchill Dew Point Humidity Pressure Visibility Wind Dir Wind Speed Gust Speed Precip Events Conditions
12:15 AM 41.0 °F 39.0 °F 35.4 °F 81% 29.67 in 7.0 mi SW 3.5 mph - N/A   Clear
12:35 AM 39.0 °F 35.7 °F 34.0 °F 82% 29.67 in 7.0 mi South 4.6 mph - N/A   Clear
12:55 AM 38.5 °F 35.0 °F 34.5 °F 86% 29.66 in 7.0 mi South 4.6 mph - N/A   Clear
1:15 AM 38.3 °F 34.8 °F 34.2 °F 85% 29.66 in 7.0 mi South 4.6 mph - N/A   Clear
1:35 AM 38.1 °F 34.6 °F 34.2 °F 86% 29.66 in 5.0 mi South 4.6 mph - N/A   Clear
1:54 AM 38.1 °F 35.7 °F 34.7 °F 87% 29.66 in 4.0 mi South 3.5 mph - N/A   Clear
2:15 AM 36.7 °F - 33.8 °F 89% 29.67 in 2.5 mi Calm Calm - N/A   Clear
2:35 AM 34.9 °F 32.0 °F 32.4 °F 91% 29.67 in 1.8 mi South 3.5 mph - N/A   Mist
2:54 AM 36.1 °F 32.3 °F 34.0 °F 92% 29.68 in 2.0 mi South 4.6 mph - N/A   Clear
3:15 AM 35.6 °F - 33.4 °F 92% 29.68 in 1.0 mi Calm Calm - N/A   Mist
3:35 AM 35.1 °F - 33.1 °F 92% 29.68 in 0.5 mi Calm Calm - N/A Fog Fog
3:54 AM 32.9 °F - 31.5 °F 94% 29.67 in 0.2 mi Calm Calm - N/A Fog Fog
4:15 AM 32.2 °F - 30.9 °F 95% 29.67 in 0.5 mi Calm Calm - N/A Fog Fog
4:35 AM 33.4 °F - 32.0 °F 94% 29.67 in 1.0 mi Calm Calm - N/A   Mist
4:55 AM 34.2 °F - 32.5 °F 94% 29.66 in 1.8 mi Calm Calm - N/A   Mist
5:15 AM 34.9 °F - 33.3 °F 94% 29.65 in 1.2 mi Calm Calm - N/A   Mist
5:34 AM 35.6 °F 31.7 °F 33.8 °F 93% 29.66 in 0.2 mi SSW 4.6 mph - N/A Fog Fog
5:55 AM 36.5 °F - 34.9 °F 94% 29.66 in 0.2 mi Calm Calm - N/A Fog Fog
6:15 AM 36.5 °F 32.7 °F 34.9 °F 94% 29.66 in 0.2 mi SSW 4.6 mph - N/A Fog Fog
6:35 AM 37.2 °F - 35.6 °F 94% 29.66 in 0.8 mi Calm Calm - N/A   Mist
6:55 AM 36.1 °F 32.3 °F 34.7 °F 94% 29.66 in 0.2 mi South 4.6 mph - N/A Fog Fog
7:15 AM 36.3 °F - 34.7 °F 94% 29.67 in 0.2 mi Calm Calm - N/A Fog Fog
7:35 AM 36.3 °F - 34.9 °F 95% 29.67 in 0.2 mi Calm Calm - N/A Fog Fog
7:55 AM 36.1 °F - 34.7 °F 94% 29.68 in 0.2 mi Calm Calm - N/A Fog Fog
8:14 AM 35.6 °F - 34.2 °F 94% 29.67 in 0.2 mi Calm Calm - N/A Fog Fog
8:35 AM 35.2 °F - 33.8 °F 94% 29.67 in 0.2 mi Calm Calm - N/A Fog Fog
8:55 AM 35.6 °F - 34.0 °F 94% 29.68 in 0.2 mi Calm Calm - N/A Fog Fog
9:14 AM 35.2 °F 32.4 °F 33.8 °F 94% 29.68 in 0.2 mi South 3.5 mph - N/A Fog Fog
9:35 AM 36.3 °F 32.5 °F 34.9 °F 95% 29.68 in 0.5 mi South 4.6 mph - N/A Fog Fog
9:55 AM 37.2 °F 32.6 °F 35.6 °F 94% 29.69 in 0.5 mi South 5.8 mph - N/A Fog Fog
10:14 AM 37.8 °F 35.3 °F 36.3 °F 95% 29.69 in 0.5 mi South 3.5 mph - N/A Fog Fog
10:35 AM 38.7 °F 36.3 °F 37.4 °F 95% 29.69 in 0.8 mi SSW 3.5 mph - N/A   Overcast
10:55 AM 37.6 °F 35.1 °F 36.3 °F 95% 29.69 in 1.0 mi SSW 3.5 mph - N/A   Overcast
11:14 AM 39.4 °F - 37.9 °F 95% 29.69 in 1.5 mi Calm Calm - N/A   Overcast
11:35 AM 42.3 °F - 40.8 °F 95% 29.70 in 2.5 mi Calm Calm - N/A   Overcast
11:55 AM 43.7 °F - 41.2 °F 91% 29.70 in 3.0 mi Calm Calm - N/A   Overcast
12:15 PM 43.9 °F 41.3 °F 37.9 °F 80% 29.70 in 5.0 mi West 4.6 mph - N/A   Haze
12:35 PM 45.0 °F - 34.9 °F 68% 29.70 in 7.0 mi Calm Calm - N/A   Overcast
12:55 PM 44.8 °F - 35.1 °F 69% 29.70 in 7.0 mi Calm Calm - N/A   Overcast
1:15 PM 46.0 °F - 35.4 °F 66% 29.70 in 7.0 mi Calm Calm - N/A   Overcast
1:35 PM 46.0 °F - 35.4 °F 66% 29.70 in 7.0 mi Calm Calm - N/A   Overcast
1:55 PM 46.9 °F - 34.7 °F 62% 29.68 in 7.0 mi East 5.8 mph - N/A   Overcast
2:15 PM 47.5 °F - 35.4 °F 63% 29.66 in 7.0 mi Calm Calm - N/A   Mostly Cloudy
2:35 PM 48.0 °F - 34.7 °F 60% 29.66 in 7.0 mi Calm Calm - N/A   Scattered Clouds
2:55 PM 48.2 °F - 34.2 °F 58% 29.66 in 10.0 mi Calm Calm - N/A   Scattered Clouds
3:15 PM 49.5 °F - 33.1 °F 53% 29.66 in 10.0 mi NE 3.5 mph - N/A   Clear
3:34 PM 49.1 °F - 32.7 °F 53% 29.66 in 10.0 mi NNE 3.5 mph - N/A   Clear
3:55 PM 48.9 °F - 32.0 °F 52% 29.67 in 10.0 mi North 3.5 mph - N/A   Clear
4:15 PM 49.1 °F - 31.1 °F 50% 29.67 in 10.0 mi North 3.5 mph - N/A   Clear
4:35 PM 48.7 °F - 32.0 °F 52% 29.68 in 10.0 mi North 5.8 mph - N/A   Clear
4:55 PM 47.5 °F - 31.6 °F 54% 29.68 in 10.0 mi North 4.6 mph - N/A   Mostly Cloudy
5:15 PM 48.0 °F - 30.9 °F 52% 29.68 in 10.0 mi North 3.5 mph - N/A   Overcast
5:35 PM 48.2 °F - 31.1 °F 52% 29.70 in 10.0 mi NNW 5.8 mph - N/A   Overcast
5:54 PM 47.3 °F - 31.5 °F 54% 29.69 in 10.0 mi North 6.9 mph - N/A Rain Light Rain
6:15 PM 45.1 °F 43.7 °F 32.0 °F 60% 29.69 in 10.0 mi North 3.5 mph - N/A Rain Light Rain
6:35 PM 45.3 °F 42.3 °F 31.8 °F 59% 29.68 in 10.0 mi NNE 5.8 mph - N/A   Overcast
6:55 PM 45.3 °F - 32.0 °F 60% 29.70 in 10.0 mi Calm Calm - N/A   Overcast
7:15 PM 44.6 °F 39.7 °F 31.8 °F 61% 29.71 in 10.0 mi North 9.2 mph - N/A   Overcast
7:35 PM 41.9 °F 36.9 °F 32.0 °F 68% 29.72 in 10.0 mi North 8.1 mph - N/A   Overcast
7:55 PM 40.6 °F 37.5 °F 32.0 °F 71% 29.71 in 10.0 mi NNE 4.6 mph - N/A   Light Drizzle
8:14 PM 42.3 °F 38.6 °F 32.7 °F 69% 29.73 in 10.0 mi North 5.8 mph - N/A   Overcast
8:35 PM 40.6 °F 35.4 °F 33.3 °F 75% 29.72 in 10.0 mi NNE 8.1 mph - N/A   Mostly Cloudy
8:55 PM 41.2 °F 36.0 °F 33.6 °F 74% 29.72 in 10.0 mi NNE 8.1 mph - N/A   Mostly Cloudy
9:14 PM 40.1 °F 34.7 °F 33.8 °F 78% 29.71 in 10.0 mi NNE 8.1 mph - N/A   Mostly Cloudy
9:35 PM 39.6 °F 34.0 °F 33.8 °F 80% 29.72 in 10.0 mi NNE 8.1 mph - N/A   Scattered Clouds
9:55 PM 39.7 °F 34.3 °F 34.3 °F 81% 29.73 in 10.0 mi North 8.1 mph - N/A   Clear
10:14 PM 39.0 °F 32.3 °F 34.0 °F 82% 29.72 in 10.0 mi NNE 10.4 mph - N/A   Clear
10:35 PM 38.7 °F 33.6 °F 34.0 °F 83% 29.72 in 10.0 mi NNE 6.9 mph - N/A   Clear
10:54 PM 38.3 °F 33.2 °F 33.8 °F 84% 29.71 in 10.0 mi NNE 6.9 mph - N/A   Scattered Clouds
11:15 PM 38.5 °F 32.7 °F 34.0 °F 84% 29.69 in 10.0 mi NE 8.1 mph - N/A   Mostly Cloudy
11:34 PM 38.7 °F 34.3 °F 34.0 °F 83% 29.69 in 10.0 mi NE 5.8 mph - N/A   Overcast
11:55 PM 38.3 °F 34.8 °F 33.8 °F 84% 29.71 in 10.0 mi North 4.6 mph - N/A   Overcast